OK2DDS-5 Weather Reports


time (UTC)temp
C
wind
direction
speed
KPH
gust
KPH
rain 1hr
cm
rain 24hr
cm
rain mn
cm
humidity
%
barometer
mb
20260503053127 10 0 1.6 37.0 0.00 0.00 0.00 1012.0
20260503051627 10 0 1.6 33.8 0.00 0.00 0.00 1012.0
20260503050127 8 0 1.6 49.9 0.00 0.00 0.00 1012.0
20260503044627 8 0 0.0 54.7 0.00 0.00 0.00 1012.0
20260503043127 8 0 1.6 41.8 0.00 0.00 0.00 1012.0
20260503041627 8 0 1.6 80.5 0.00 0.00 0.00 1012.0
20260503040127 8 0 1.6 29.0 0.00 0.00 0.00 1012.0
20260503034627 8 0 1.6 127.1 0.00 0.00 0.00 1012.0
20260503033127 8 0 1.6 99.8 0.00 0.00 0.00 1012.0
20260503031627 8 0 1.6 53.1 0.00 0.00 0.00 1012.0
20260503030127 8 0 0.0 29.0 0.00 0.00 0.00 1012.0
20260503024627 9 0 1.6 38.6 0.00 0.00 0.00 1012.0
20260503023127 9 0 1.6 35.4 0.00 0.00 0.00 1012.0
20260503021627 9 0 1.6 61.2 0.00 0.00 0.00 1012.0
20260503020127 10 0 0.0 29.0 0.00 0.00 0.00 1012.0
20260503014627 10 0 0.0 38.6 0.00 0.00 0.00 1012.0
20260503013127 10 0 1.6 40.2 0.00 0.00 0.00 1011.0
20260503011627 10 0 1.6 30.6 0.00 0.00 0.00 1011.0
20260503010127 11 0 0.0 37.0 0.00 0.00 0.00 1011.0
20260503004627 11 0 0.0 38.6 0.00 0.00 0.00 1011.0
20260503003127 11 0 1.6 37.0 0.00 0.00 0.00 1011.0
20260503001627 11 0 1.6 33.8 0.00 0.00 0.00 1011.0
20260503000127 11 0 1.6 38.6 0.00 0.00 0.00 1011.0
20260502234627 12 0 1.6 43.5 0.00 0.00 0.00 1011.0
20260502233127 12 0 1.6 62.8 0.00 0.00 0.00 1011.0
20260502231627 12 0 1.6 30.6 0.00 0.00 0.00 1011.0
20260502230127 13 0 1.6 25.7 0.00 0.00 0.00 1011.0
20260502224627 13 0 1.6 38.6 0.00 0.00 0.00 1011.0
20260502223127 13 0 1.6 29.0 0.00 0.00 0.00 1012.0
20260502221627 13 0 0.0 25.7 0.00 0.00 0.00 1012.0
20260502220127 15 0 0.0 22.5 0.00 0.00 0.00 1012.0
20260502214627 15 0 1.6 53.1 0.00 0.00 0.00 1011.0
20260502213127 15 0 0.0 48.3 0.00 0.00 0.00 1012.0
20260502211627 16 0 0.0 43.5 0.00 0.00 0.00 1012.0
20260502210127 16 0 0.0 12.9 0.00 0.00 0.00 1012.0
20260502204627 16 0 0.0 11.3 0.00 0.00 0.00 1012.0
20260502203127 17 0 0.0 20.9 0.00 0.00 0.00 1012.0
20260502201627 17 0 0.0 11.3 0.00 0.00 0.00 1012.0
20260502200127 18 0 0.0 16.1 0.00 0.00 0.00 1012.0
20260502194627 18 0 0.0 16.1 0.00 0.00 0.00 1012.0
20260502193127 18 0 0.0 11.3 0.00 0.00 0.00 1012.0
20260502191627 19 0 0.0 14.5 0.00 0.00 0.00 1012.0
20260502190127 20 0 0.0 17.7 0.00 0.00 0.00 1012.0
20260502184627 20 0 0.0 29.0 0.00 0.00 0.00 1012.0
20260502183127 21 0 0.0 16.1 0.00 0.00 0.00 1011.0
20260502181627 23 0 0.0 12.9 0.00 0.00 0.00 1011.0
20260502180127 25 0 0.0 8.0 0.00 0.00 0.00 1011.0
20260502170127 32 0 0.0 4.8 0.00 0.00 0.00 1011.0
20260502163127 32 0 0.0 4.8 0.00 0.00 0.00 1011.0
20260502161627 32 0 0.0 6.4 0.00 0.00 0.00 1011.0
20260502160127 33 0 0.0 11.3 0.00 0.00 0.00 1011.0
20260502151627 33 0 0.0 4.8 0.00 0.00 0.00 1012.0
20260502150127 33 0 0.0 6.4 0.00 0.00 0.00 1012.0
20260502140127 33 0 0.0 6.4 0.00 0.00 0.00 1013.0
20260502130127 33 0 0.0 8.0 0.00 0.00 0.00 1013.0
20260502123127 35 0 0.0 9.7 0.00 0.00 0.00 1013.0
20260502121627 35 0 0.0 27.4 0.00 0.00 0.00 1014.0
20260502120127 35 0 0.0 20.9 0.00 0.00 0.00 1014.0
20260502114627 33 0 0.0 4.8 0.00 0.00 0.00 1014.0
20260502113126 32 0 0.0 11.3 0.00 0.00 0.00 1014.0
20260502111627 32 0 0.0 29.0 0.00 0.00 0.00 1014.0
20260502110126 32 0 0.0 6.4 0.00 0.00 0.00 1015.0
20260502104627 31 0 0.0 8.0 0.00 0.00 0.00 1015.0
20260502103127 30 0 0.0 9.7 0.00 0.00 0.00 1015.0
20260502101626 30 0 0.0 22.5 0.00 0.00 0.00 1015.0
20260502100221 28 0 0.0 6.4 0.00 0.00 0.00 1016.0
20260502100126 28 0 0.0 6.4 0.00 0.00 0.00 1016.0
20260502090126 21 0 0.0 49.9 0.00 0.00 0.00 1017.0
20260502070126 14 0 1.6 29.0 0.00 0.00 0.00 1017.0
20260502064626 13 0 1.6 33.8 0.00 0.00 0.00 1018.0
20260502063126 12 0 1.6 49.9 0.00 0.00 0.00 1018.0
20260502061626 11 0 1.6 61.2 0.00 0.00 0.00 1018.0
20260502060126 11 0 1.6 53.1 0.00 0.00 0.00 1018.0
20260502054626 10 0 1.6 33.8 0.00 0.00 0.00 1018.0